Weather in Nebel

Russia / Irkutsk Oblast     56°21′08″N   107°06′19″E
temp.,
°C
wind,
m/s
gust,
m/s
humid.,
%
clouds,
%
prec.,
mm/h
press.,
hPa
HPBL,
m
26 may, thu
thu2623:00+12sw22525 0.0 100911
02:00+11sw325591 0.0 100735
05:00+10wsw3356100 0.0 100558
08:00+13wnw4105997 0.1 1004606
11:00+13nw587085 0.7 10041210
14:00+14nw795685 1.3 10041785
17:00+8nnw6108384 1.3 10071098
20:00+5n4993100 1.8 10101049
27 may, fri
fri2723:00+4n4109593 0.9 1012816
02:00+2nnw399252 1.1 1012543
05:00+1nw389714 0.0 1013390
08:00+3n488299 0.1 1014856
11:00+4n4769100 0.2 10131261
14:00+7n464594 0.3 10121867
17:00+7nne6844100 0.0 10111923
20:00+4nne58645 0.1 1013914
28 may, sat
sat2823:00+1n3117846 0.0 1013551
02:00+1n4118783 0.0 1013657
05:00−1nnw3119637 0.0 1014392
08:00+5nne610545 0.0 10131297
11:00+7n684099 0.0 10132097
14:00+10nne6830100 0.0 10122695
17:00+10nne6930100 0.0 10122612
20:00+7nne4941100 0.0 10131415
29 may, sun
sun2923:00+2nw2260100 0.0 101526
02:000nw227240 0.0 101528
05:00−1wnw23796 0.0 101649
08:00+7n48475 0.0 10131180
11:00+10n463598 0.0 10111772
14:00+13n4530100 0.0 10092219
17:00+13n4430100 0.0 10082345
20:00+9nne2248100 0.0 100941
30 may, mon
mon3023:00+5w116153 0.0 101010
02:00+3w21685 0.0 101012
05:00+2w22695 0.0 101128
08:00+9nw24443 0.0 1009599
11:00+13nw353291 0.0 10072148
14:00+13wnw4533100 0.0 10062283
17:00+9w3665100 0.1 1007965
20:00+8wnw258137 0.5 1006242